Starlink 33579

operational
NORAD ID: 62764 Int'l Des: 2025-015 Owner: SPXS Country: US Constellation: starlink
LEOCIRCULAR

About Starlink 33579

Description loading...

Live Position

Loading 3D Globe...

Upcoming Passes

Altitude History

Altitude vs Time

uPlot chart will show altitude changes over time

Two-Line Element Set

1 62764U 25015G 25259.74028505 .00008645 00000-0 30369-3 0 9999
2 62764 53.1616 50.0835 0001185 89.8918 270.2219 15.30196740 37850
Epoch: Sep 16, 2025 • Age: 24 hours

Current Status

Altitude 478.2 km
Velocity 7.63 km/s
Sub-Earth Point -10.74°S, 35.25°W
Launch Date Jan 21, 2025
Age 0.6 years
Type internet

Technical Details

Classification Payload
Mass 575.00 kg
Dry Mass 530.00 kg
Total Mass 575.00 kg
Length 0.30 m
Diameter 4.10 m
Span 29.00 m
Shape Box + pan
Manufacturer SPXS
Bus Type Starlink V2MO
Phase Status In Orbit
Owner/State SPXS/US

Large Constellations

Loading constellations...